GW1496 Weather Reports


time (UTC)temp
C
wind
direction
speed
KPH
gust
KPH
rain 1hr
cm
rain 24hr
cm
rain mn
cm
humidity
%
barometer
mb
20260504081814 5 248 0.0 0.0 0.00 0.00 0.00 82 1006.7
20260504081216 5 248 0.0 0.0 0.00 0.00 0.00 80 1006.7
20260504080626 5 248 0.0 0.0 0.00 0.00 0.00 81 1006.7
20260504045417 6 292 1.6 1.6 0.00 0.00 0.00 76 1007.7
20260504044831 6 292 0.0 0.0 0.00 0.00 0.00 75 1007.7
20260504044221 6 292 0.0 0.0 0.00 0.00 0.00 74 1006.7
20260504043642 6 292 0.0 0.0 0.00 0.00 0.00 75 1006.7
20260504043048 6 292 0.0 0.0 0.00 0.00 0.00 74 1006.7
20260504042431 6 292 0.0 0.0 0.00 0.00 0.00 74 1007.7
20260504041228 7 292 0.0 0.0 0.00 0.00 0.00 72 1007.7
20260504040644 7 292 0.0 0.0 0.00 0.00 0.00 73 1007.7
20260504040029 7 292 0.0 0.0 0.00 0.00 0.00 71 1007.7
20260504035428 7 292 0.0 0.0 0.00 0.00 0.00 72 1006.7
20260504034214 7 292 0.0 0.0 0.00 0.00 0.00 70 1006.7
20260504033612 7 292 0.0 0.0 0.00 0.00 0.00 69 1006.7
20260504033036 7 292 0.0 0.0 0.00 0.00 0.00 68 1006.7
20260504031244 7 292 0.0 0.0 0.00 0.00 0.00 67 1006.7
20260504030018 8 292 1.6 1.6 0.00 0.00 0.00 66 1006.7
20260504025413 8 292 0.0 0.0 0.00 0.00 0.00 65 1006.7
20260504024824 8 292 0.0 0.0 0.00 0.00 0.00 65 1006.7
20260504024220 8 292 0.0 0.0 0.00 0.00 0.00 66 1006.7
20260504023633 8 292 0.0 0.0 0.00 0.00 0.00 59 1006.7
20260504023027 8 292 3.2 3.2 0.00 0.00 0.00 61 1006.7
20260504022437 8 292 0.0 0.0 0.00 0.00 0.00 63 1006.7
20260504021834 8 338 0.0 0.0 0.00 0.00 0.00 66 1006.7
20260504020620 8 338 0.0 0.0 0.00 0.00 0.00 65 1006.7
20260504020020 8 338 0.0 0.0 0.00 0.00 0.00 66 1006.7
20260504015443 8 338 0.0 0.0 0.00 0.00 0.00 61 1006.7
20260504014826 8 338 0.0 0.0 0.00 0.00 0.00 59 1006.7
20260504014244 8 338 0.0 0.0 0.00 0.00 0.00 63 1006.7
20260504013650 8 338 0.0 0.0 0.00 0.00 0.00 61 1006.7
20260504012412 9 338 0.0 0.0 0.00 0.00 0.00 61 1006.7
20260504011837 9 338 0.0 0.0 0.00 0.00 0.00 57 1006.7
20260504011214 10 338 0.0 0.0 0.00 0.00 0.00 59 1006.7
20260504010635 10 338 0.0 0.0 0.00 0.00 0.00 55 1006.7
20260504010049 10 338 0.0 0.0 0.00 0.00 0.00 56 1006.7
20260504005438 10 338 0.0 0.0 0.00 0.00 0.00 53 1006.0
20260504004247 10 338 0.0 0.0 0.00 0.00 0.00 57 1006.0
20260504003614 10 338 0.0 0.0 0.00 0.00 0.00 56 1006.0
20260504003040 10 338 0.0 0.0 0.00 0.00 0.00 54 1006.0
20260504002436 11 338 0.0 0.0 0.00 0.00 0.00 54 1006.0
20260504001818 11 338 0.0 0.0 0.00 0.00 0.00 51 1006.0
20260504001219 11 338 0.0 0.0 0.00 0.00 0.00 54 1006.0
20260504000654 12 338 0.0 0.0 0.00 0.00 0.00 49 1006.0
20260504000042 12 338 0.0 0.0 0.00 0.00 0.00 46 1006.0
20260503235412 12 338 0.0 0.0 0.00 0.00 0.00 44 1006.0
20260503234815 12 338 0.0 0.0 0.00 0.00 0.00 44 1006.0
20260503234236 13 338 0.0 0.0 0.00 0.00 0.00 48 1006.0
20260503233627 13 338 0.0 0.0 0.00 0.00 0.00 43 1006.0
20260503233035 13 338 0.0 0.0 0.00 0.00 0.00 42 1006.0
20260503232447 13 338 0.0 0.0 0.00 0.00 0.00 39 1006.0
20260503231818 13 338 0.0 0.0 0.00 0.00 0.00 40 1006.0
20260503231252 14 338 0.0 0.0 0.00 0.00 0.00 40 1006.0
20260503230636 14 248 0.0 0.0 0.00 0.00 0.00 37 1006.0
20260503230041 15 248 3.2 3.2 0.00 0.00 0.00 36 1006.0
20260503224223 17 248 1.6 1.6 0.00 0.00 0.00 28 1006.0
20260503223614 17 248 0.0 0.0 0.00 0.00 0.00 26 1006.0
20260503223014 18 292 4.8 4.8 0.00 0.00 0.00 28 1006.0
20260503222422 18 338 0.0 0.0 0.00 0.00 0.00 29 1006.0
20260503221820 18 225 1.6 1.6 0.00 0.00 0.00 28 1006.0
20260503221224 18 180 1.6 1.6 0.00 0.00 0.00 22 1006.0
20260503220654 18 248 1.6 1.6 0.00 0.00 0.00 21 1006.0
20260503220044 18 225 3.2 3.2 0.00 0.00 0.00 23 1006.0
20260503215439 18 292 0.0 0.0 0.00 0.00 0.00 23 1006.0
20260503214810 18 248 4.8 4.8 0.00 0.00 0.00 23 1006.0
20260503214224 18 90 1.6 1.6 0.00 0.00 0.00 24 1006.0
20260503213647 18 225 4.8 6.4 0.00 0.00 0.00 22 1006.0
20260503212440 18 112 0.0 0.0 0.00 0.00 0.00 23 1006.7
20260503211827 18 158 3.2 3.2 0.00 0.00 0.00 22 1006.7
20260503211227 18 225 1.6 1.6 0.00 0.00 0.00 24 1006.7
20260503210647 17 225 1.6 1.6 0.00 0.00 0.00 24 1006.7
20260503210017 18 292 3.2 3.2 0.00 0.00 0.00 25 1006.7
20260503205430 18 270 8.0 8.0 0.00 0.00 0.00 24 1006.7
20260503204242 18 112 3.2 3.2 0.00 0.00 0.00 24 1006.7
20260503203038 17 112 6.4 6.4 0.00 0.00 0.00 24 1006.7
20260503202422 17 112 3.2 3.2 0.00 0.00 0.00 25 1006.7
20260503201816 17 202 0.0 0.0 0.00 0.00 0.00 24 1006.7
20260503201234 17 248 6.4 6.4 0.00 0.00 0.00 24 1006.7
20260503200625 17 225 6.4 8.0 0.00 0.00 0.00 23 1006.7
20260503200026 17 270 3.2 3.2 0.00 0.00 0.00 24 1006.7
20260503195409 17 248 4.8 4.8 0.00 0.00 0.00 27 1007.7
20260503194821 17 292 6.4 8.0 0.00 0.00 0.00 25 1007.7
20260503194241 16 248 9.7 9.7 0.00 0.00 0.00 26 1007.7
20260503193621 16 270 3.2 3.2 0.00 0.00 0.00 28 1007.7
20260503193043 16 248 4.8 4.8 0.00 0.00 0.00 25 1007.7
20260503192436 16 248 3.2 3.2 0.00 0.00 0.00 26 1007.7
20260503191842 16 248 8.0 9.7 0.00 0.00 0.00 25 1007.7
20260503191249 16 248 8.0 9.7 0.00 0.00 0.00 26 1008.8
20260503190636 15 225 14.5 16.1 0.00 0.00 0.00 26 1008.8
20260503190052 15 248 3.2 3.2 0.00 0.00 0.00 26 1008.8
20260503185423 16 248 4.8 4.8 0.00 0.00 0.00 27 1008.8
20260503184846 16 292 9.7 11.3 0.00 0.00 0.00 27 1008.8
20260503184216 16 270 3.2 3.2 0.00 0.00 0.00 27 1008.8
20260503183031 15 135 0.0 0.0 0.00 0.00 0.00 28 1008.8
20260503182446 15 225 9.7 9.7 0.00 0.00 0.00 31 1008.8
20260503181853 15 225 6.4 8.0 0.00 0.00 0.00 31 1008.8
20260503181236 15 270 1.6 1.6 0.00 0.00 0.00 29 1008.8
20260503180651 15 248 8.0 8.0 0.00 0.00 0.00 27 1008.8
20260503180026 15 225 11.3 11.3 0.00 0.00 0.00 28 1008.8
20260503175417 15 225 3.2 3.2 0.00 0.00 0.00 29 1008.8
20260503174820 14 270 6.4 6.4 0.00 0.00 0.00 28 1008.8
20260503174213 14 248 3.2 3.2 0.00 0.00 0.00 29 1008.8
20260503173627 14 248 6.4 8.0 0.00 0.00 0.00 30 1008.8
20260503173035 14 248 9.7 9.7 0.00 0.00 0.00 29 1008.8
20260503172413 13 225 11.3 11.3 0.00 0.00 0.00 31 1009.8
20260503171814 13 248 4.8 4.8 0.00 0.00 0.00 30 1009.8
20260503171254 13 248 6.4 8.0 0.00 0.00 0.00 30 1009.8
20260503150630 12 112 3.2 3.2 0.00 0.00 0.00 33 1010.8
20260503130620 8 112 0.0 0.0 0.00 0.00 0.00 59 1010.8
20260503110645 1 68 0.0 0.0 0.00 0.00 0.00 90 1009.8